Vorticity
nan nan nan nan nan nan nan nan nan nan nan nan nan nan nan nan nan nan nan nan nan nan nan nan nan nan nan nan nan nan nan nan nan nan nan nan nan nan nan nan nan nan nan nan
nan 10 10 11 7 5 6 7 9 6 9 11 8 9 15 11 7 5 5 5 5 7 10 12 11 10 9 7 4 7 7 6 5 6 8 10 10 9 8 6 7 9 9 nan
nan 6 12 10 7 7 9 9 7 7 10 5 7 13 14 11 9 7 5 10 11 9 6 8 10 8 7 8 8 6 8 7 7 6 5 7 8 8 8 9 7 7 9 nan
nan 11 11 9 8 9 7 10 10 10 9 6 7 12 10 20 10 6 6 7 10 10 9 9 9 8 7 8 8 8 7 7 8 8 6 7 7 7 8 9 9 7 10 nan
nan 8 12 9 13 8 15 15 5 6 7 8 6 11 8 14 16 13 9 5 9 9 9 9 9 9 7 9 9 8 7 7 10 8 7 7 7 8 10 9 9 8 7 nan
nan 6 10 8 19 12 5 4 7 8 7 9 13 7 7 7 8 16 17 9 7 9 8 8 8 10 11 9 10 11 8 7 9 9 9 8 7 8 8 8 7 8 7 nan
nan 11 10 8 4 7 6 4 5 7 11 9 11 7 5 4 13 19 20 18 13 10 8 8 9 7 9 9 9 10 9 9 11 11 10 10 11 10 10 9 8 7 8 nan
nan 9 15 10 11 11 3 4 8 12 6 9 10 7 9 6 11 17 26 25 19 18 15 16 13 9 10 10 9 11 9 8 11 11 11 14 14 12 11 11 11 8 8 nan
nan 6 11 10 12 10 7 7 8 7 10 13 4 8 10 4 7 10 14 16 15 14 14 14 15 18 18 17 13 11 11 11 11 11 10 9 10 11 10 10 10 10 10 nan
nan 12 8 9 9 8 15 5 5 11 14 6 7 10 8 5 6 7 7 7 8 8 8 8 9 13 15 14 13 13 14 9 8 8 9 10 8 10 9 8 8 9 10 nan
nan 12 7 9 11 7 6 7 10 13 8 11 9 7 12 14 11 7 7 8 7 6 7 6 6 7 9 11 9 4 1 6 12 14 6 6 9 7 7 9 8 9 9 nan
nan 8 15 6 6 13 11 11 11 8 8 9 11 6 14 17 12 7 7 8 8 8 7 8 7 4 6 6 6 6 12 14 3 6 10 6 7 6 8 9 9 9 8 nan
nan 5 7 10 13 14 10 10 10 8 16 13 4 12 12 9 8 8 8 5 8 8 8 9 10 13 12 8 9 12 10 9 13 8 8 7 8 8 8 8 6 8 8 nan
nan 14 14 10 6 8 6 9 12 9 9 12 7 15 12 8 6 7 8 8 8 8 9 10 8 9 10 9 8 11 9 9 9 10 9 9 10 9 9 9 9 8 8 nan
nan 7 7 8 13 12 9 9 13 12 10 10 15 15 13 13 10 8 6 7 8 7 6 8 10 9 9 8 8 8 9 9 9 10 10 9 11 9 8 8 8 7 6 nan
nan 13 7 6 8 10 9 7 11 11 11 11 10 10 13 12 11 10 9 7 5 8 10 8 7 8 9 8 8 8 9 9 10 10 9 9 9 8 8 8 7 6 7 nan
nan 13 9 7 6 8 6 9 12 11 10 9 9 12 11 10 8 9 10 9 9 8 8 8 8 7 8 9 9 10 9 9 10 9 9 9 8 8 7 8 7 8 10 nan
nan 8 11 11 11 11 5 7 13 10 9 11 17 17 8 6 12 13 10 11 9 11 10 8 9 9 9 10 10 11 11 11 10 9 9 9 8 7 8 8 8 9 10 nan
nan 11 12 12 9 6 10 15 11 6 9 14 14 7 10 12 12 9 9 13 13 8 9 10 10 11 12 11 10 10 9 9 8 8 8 9 9 9 9 8 9 11 10 nan
nan 11 12 10 13 10 7 11 11 8 9 15 12 12 10 4 4 17 20 8 9 11 13 12 9 9 10 11 11 9 8 7 7 8 8 9 10 10 8 9 11 11 9 nan
nan 12 11 11 8 9 16 12 11 9 12 14 14 10 6 7 5 14 14 10 12 14 11 10 10 10 10 10 9 8 8 7 10 10 9 9 9 10 10 10 10 9 10 nan
nan 9 7 9 9 13 9 11 13 4 12 12 12 11 7 8 9 13 13 10 10 9 9 10 10 8 9 10 8 8 6 10 10 9 8 9 10 10 11 10 8 10 11 nan
nan 12 11 11 5 7 10 9 8 14 12 12 11 12 11 9 10 10 12 10 10 9 7 10 11 8 8 9 8 7 8 10 8 9 9 10 11 10 10 10 10 11 11 nan
nan 12 9 8 12 11 12 11 14 12 11 12 12 15 12 9 10 10 11 11 11 10 9 10 10 8 7 10 10 8 9 11 9 10 10 10 10 9 11 11 10 9 8 nan
nan 9 9 6 8 13 13 14 13 13 10 10 13 14 12 10 9 11 10 11 10 9 10 11 9 9 10 9 8 10 12 12 10 10 10 10 11 10 10 11 10 9 9 nan
nan nan nan nan nan nan nan nan nan nan nan nan nan nan nan nan nan nan nan nan nan nan nan nan nan nan nan nan nan nan nan nan nan nan nan nan nan nan nan nan nan nan nan nan
CAPE
187 252 90 1 3 5 70 79 181 179 301 54 50 5 0 0 0 0 0 0 0 0 0 0 0 64 29 3 1 0 33 206 3 197 403 206 328 313 262 173 246 294 463 666
2 129 119 10 0 5 88 190 184 242 299 193 25 10 0 0 0 0 0 0 0 0 0 0 0 54 17 10 8 0 25 23 63 132 192 159 367 364 133 231 457 309 364 565
149 103 0 0 24 18 78 165 135 103 457 266 61 38 13 6 0 0 0 0 0 0 0 0 3 61 48 47 2 0 13 3 0 42 116 399 259 273 216 322 133 296 217 177
5 0 20 33 50 20 26 57 176 351 22 53 51 70 3 0 6 3 0 0 0 0 0 5 5 25 140 156 59 0 0 3 0 0 193 453 557 379 242 123 45 41 522 365
230 25 0 257 220 16 49 37 342 201 0 5 32 57 4 0 1 0 7 0 0 5 16 20 32 30 130 310 184 9 0 6 29 41 98 233 261 166 109 18 10 27 99 86
33 0 0 0 217 75 118 102 12 0 10 73 17 108 28 12 20 27 2 0 0 15 57 57 99 123 153 243 287 93 48 56 143 133 276 283 384 244 21 0 75 0 1 2
0 0 0 0 21 72 260 126 154 114 186 159 0 0 57 2 52 11 30 8 0 21 98 103 134 226 193 212 197 243 167 157 168 305 371 223 177 41 15 16 0 3 0 0
0 0 0 0 0 194 322 0 17 1 12 0 0 10 35 121 356 550 187 44 11 20 83 135 137 259 400 399 430 460 198 156 129 37 1 1 3 3 3 1 1 0 0 0
0 0 0 0 0 134 121 217 0 0 0 0 0 0 3 163 168 328 368 433 493 185 145 1 4 144 323 562 599 112 7 2 2 2 4 2 2 1 0 0 0 0 0 0
0 0 0 0 0 0 0 0 0 0 0 0 0 0 25 177 164 71 11 2 3 2 2 2 2 2 2 2 2 3 2 5 7 6 4 3 2 0 0 0 0 0 0 0
0 0 0 0 0 0 0 0 0 0 0 0 0 0 613 394 182 6 2 3 3 2 2 2 2 2 5 9 8 4 4 12 5 4 2 3 5 1 0 0 0 0 0 0
0 0 0 0 0 0 0 0 0 0 0 0 0 0 476 261 124 0 2 2 1 1 1 0 1 2 2 3 2 7 1 0 0 4 10 7 0 0 0 0 0 0 0 0
0 0 0 0 0 0 0 0 0 0 0 0 0 0 371 250 117 135 30 2 3 2 3 5 3 1 1 1 2 6 8 9 6 2 1 4 1 0 0 0 0 0 0 0
0 0 0 0 0 0 0 0 0 0 0 0 0 12 458 306 453 318 38 1 1 1 1 0 0 2 1 0 0 0 0 3 1 0 0 0 0 0 0 0 0 0 0 0
0 0 0 0 0 0 0 0 251 0 0 0 0 139 386 631 592 176 43 0 0 0 0 0 0 0 0 0 0 0 0 0 0 0 0 0 0 0 0 0 0 0 0 0
0 0 0 0 0 0 0 0 0 146 679 728 547 732 618 504 129 71 24 0 0 0 0 0 0 0 0 0 0 0 0 0 0 0 0 0 0 0 0 0 0 0 0 0
0 0 0 0 0 0 0 0 7 319 432 803 680 559 513 444 392 228 74 62 23 0 0 0 0 0 0 0 0 0 0 0 0 0 0 0 0 0 0 0 0 0 0 0
0 0 0 0 0 0 0 0 0 419 510 466 618 646 644 669 530 440 189 163 43 0 0 0 0 0 0 0 0 0 0 0 0 0 0 0 0 0 0 0 0 0 0 0
0 0 0 0 0 0 0 0 0 0 309 730 1024 810 547 408 351 380 225 183 23 0 0 0 0 0 0 0 0 0 0 0 0 0 0 0 0 0 0 0 0 0 0 0
0 0 0 0 0 0 0 0 0 0 0 351 881 763 707 618 484 490 230 142 0 0 0 0 0 0 0 0 0 0 0 0 0 0 0 0 0 0 0 0 0 0 0 0
0 0 0 0 0 0 0 0 0 0 0 273 875 745 701 639 359 58 41 6 0 0 0 0 0 0 0 0 0 0 0 0 0 0 0 0 0 0 0 0 0 0 0 0
0 0 0 0 0 0 0 0 0 0 0 300 749 713 602 245 105 0 0 0 0 0 0 0 0 0 0 0 0 0 0 0 0 0 0 0 0 0 0 0 0 0 0 0
0 0 0 0 0 0 0 0 0 0 1 100 626 539 497 163 0 0 0 0 0 0 0 0 0 0 0 0 0 0 0 0 0 0 0 0 0 0 0 0 0 0 0 0
0 0 0 0 0 0 0 0 0 0 0 0 6 80 101 133 0 0 0 0 0 0 0 0 0 0 0 0 0 0 0 0 0 0 0 0 0 0 0 0 0 0 0 0
0 0 0 0 0 0 0 0 0 0 0 0 0 0 0 0 0 0 0 0 0 0 0 0 0 0 0 0 0 0 0 0 0 0 0 0 0 0 0 0 0 0 0 0
0 0 0 0 0 0 0 0 0 0 0 0 0 0 0 0 0 0 0 0 0 0 0 0 0 0 0 0 0 0 0 0 0 0 0 0 0 0 0 0 0 0 0 0